Weather History for Crockett, TX

Change the Weather History Date:

Wednesday, September 11, 2013

  Actual Average (KLFK) Record (KLFK)
Temperature  
Mean Temperature 82 °F 79 °F  
Max Temperature 96 °F 90 °F 101 °F (2011)
Min Temperature 69 °F 68 °F 48 °F (1907)
Degree Days  
Heating Degree Days 0 0  
Month to date heating degree days 0  
Since 1 July heating degree days 0  
Cooling Degree Days 18 14  
Month to date cooling degree days 166  
Year to date cooling degree days 2189  
Growing Degree Days 32 (Base 50)    
Moisture  
Dew Point 67 °F    
Average Humidity 66    
Maximum Humidity 100    
Minimum Humidity 32    
Precipitation  
Precipitation 0.00 in 0.16 in 2.09 in (1998)
Month to date precipitation 1.56  
Year to date precipitation 32.15  
Snow  
Snow 0.00 in - - ()
Month to date snowfall  
Since 1 July snowfall  
Since 1 September snowfall  
Snow Depth -    
Sea Level Pressure  
Sea Level Pressure 30.09 in    
Wind  
Wind Speed 3 mph (East)    
Max Wind Speed 12 mph    
Max Gust Speed 18 mph    
Visibility 8 miles    
Events Thunderstorm    
T = Trace of Precipitation, MM = Missing Value Source: NWS Daily Summary

Daily Weather History Graph

Daily Weather History Graph

Search for Another Location

Airport:

Trip Planner

Search our weather history database for the weather conditions in past years. The results will help you decide how hot, cold, wet, or windy it might be!

Date:

Astronomy

Sep. 11, 2013 Rise Set
Actual Time 7:03 AM CDT 7:32 PM CDT
Civil Twilight 6:39 AM CDT 7:56 PM CDT
Nautical Twilight 6:10 AM CDT 8:25 PM CDT
Astronomical Twilight 5:41 AM CDT 8:54 PM CDT
Moon 1:08 PM CDT (9/11) 11:53 PM CDT (9/11)
Length of Visible Light 13h 17m
Length of Day
12h 28m
Waxing Crescent, 39% of the Moon is Illuminated
Sep 11
Waxing Crescent
Sep 12
First Quarter
Sep 19
Full
Sep 26
Last Quarter
Oct 4
New

Hourly Weather History & Observations

Time (CDT) Temp. Heat Index Dew Point Humidity Pressure Visibility Wind Dir Wind Speed Gust Speed Precip Events Conditions
12:15 AM 71.6 °F - 69.8 °F 94% 30.11 in 5.0 mi Calm Calm - N/A   Clear
12:35 AM 71.6 °F - 69.8 °F 94% 30.11 in 5.0 mi Calm Calm - N/A   Clear
12:55 AM 71.6 °F - 69.8 °F 94% 30.11 in 5.0 mi Calm Calm - N/A   Clear
1:15 AM 71.6 °F - 69.8 °F 94% 30.11 in 6.0 mi NNE 3.5 mph - N/A   Clear
1:55 AM 71.6 °F - 69.8 °F 94% 30.11 in 5.0 mi Calm Calm - N/A   Clear
2:15 AM 71.6 °F - 69.8 °F 94% 30.11 in 7.0 mi Calm Calm - N/A   Clear
2:35 AM 71.6 °F - 69.8 °F 94% 30.11 in 5.0 mi Calm Calm - N/A   Clear
2:55 AM 71.6 °F - 69.8 °F 94% 30.11 in 5.0 mi Calm Calm - N/A   Clear
3:15 AM 71.6 °F - 69.8 °F 94% 30.11 in 5.0 mi Calm Calm - N/A   Clear
3:35 AM 71.6 °F - 69.8 °F 94% 30.11 in 7.0 mi Calm Calm - N/A   Clear
3:55 AM 71.6 °F - 69.8 °F 94% 30.11 in 6.0 mi Calm Calm - N/A   Clear
4:15 AM 71.6 °F - 69.8 °F 94% 30.11 in 5.0 mi Calm Calm - N/A   Clear
4:35 AM 71.6 °F - 69.8 °F 94% 30.11 in 5.0 mi Calm Calm - N/A   Clear
4:55 AM 71.6 °F - 69.8 °F 94% 30.11 in 5.0 mi Calm Calm - N/A   Clear
5:15 AM 71.6 °F - 69.8 °F 94% 30.11 in 5.0 mi NE 3.5 mph - N/A   Clear
5:35 AM 69.8 °F - 69.8 °F 100% 30.11 in 5.0 mi NE 3.5 mph - N/A   Clear
5:55 AM 69.8 °F - 69.8 °F 100% 30.11 in 5.0 mi NE 3.5 mph - N/A   Clear
6:15 AM 69.8 °F - 69.8 °F 100% 30.12 in 5.0 mi Calm Calm - N/A   Clear
6:35 AM 71.6 °F - 69.8 °F 94% 30.12 in 6.0 mi NNE 3.5 mph - N/A   Clear
6:55 AM 71.6 °F - 69.8 °F 94% 30.12 in 6.0 mi NE 3.5 mph - N/A   Clear
7:15 AM 71.6 °F - 69.8 °F 94% 30.13 in 5.0 mi NE 4.6 mph - N/A   Clear
7:35 AM 71.6 °F - 69.8 °F 94% 30.13 in 5.0 mi NE 4.6 mph - N/A   Clear
7:55 AM 73.4 °F - 69.8 °F 88% 30.13 in 6.0 mi NE 3.5 mph - N/A   Clear
8:15 AM 73.4 °F - 71.6 °F 94% 30.14 in 7.0 mi NE 3.5 mph - N/A   Clear
8:35 AM 75.2 °F - 71.6 °F 89% 30.14 in 9.0 mi NE 4.6 mph - N/A   Clear
8:55 AM 78.8 °F - 73.4 °F 83% 30.14 in 10.0 mi ENE 5.8 mph - N/A   Clear
9:15 AM 80.6 °F 85.4 °F 73.4 °F 79% 30.15 in 10.0 mi East 4.6 mph - N/A   Clear
9:35 AM 82.4 °F 88.2 °F 73.4 °F 74% 30.15 in 10.0 mi ENE 6.9 mph - N/A   Clear
9:55 AM 82.4 °F 88.2 °F 73.4 °F 74% 30.15 in 10.0 mi East 4.6 mph - N/A   Clear
10:15 AM 82.4 °F 88.2 °F 73.4 °F 74% 30.16 in 10.0 mi ENE 6.9 mph - N/A   Clear
10:35 AM 84.2 °F 89.6 °F 71.6 °F 66% 30.16 in 10.0 mi East 4.6 mph - N/A   Clear
10:55 AM 86.0 °F 90.4 °F 69.8 °F 58% 30.15 in 10.0 mi SSE 8.1 mph - N/A   Clear
11:15 AM 87.8 °F 92.6 °F 69.8 °F 55% 30.15 in 10.0 mi East 5.8 mph - N/A   Partly Cloudy
11:35 AM 89.6 °F 92.2 °F 66.2 °F 46% 30.15 in 10.0 mi ESE 8.1 mph - N/A   Clear
11:55 AM 91.4 °F 93.2 °F 64.4 °F 41% 30.14 in 10.0 mi East 5.8 mph - N/A   Clear
12:15 PM 91.4 °F 93.2 °F 64.4 °F 41% 30.13 in 10.0 mi SSE 3.5 mph - N/A   Clear
12:35 PM 93.2 °F 94.1 °F 62.6 °F 36% 30.13 in 10.0 mi ENE 4.6 mph - N/A   Clear
12:55 PM 93.2 °F 94.1 °F 62.6 °F 36% 30.12 in 10.0 mi East 8.1 mph - N/A   Clear
1:15 PM 95.0 °F 96.0 °F 62.6 °F 34% 30.12 in 10.0 mi East 4.6 mph 18.4 mph N/A   Clear
1:35 PM 95.0 °F 96.0 °F 62.6 °F 34% 30.11 in 10.0 mi East 9.2 mph - N/A   Clear
1:55 PM 95.0 °F 95.2 °F 60.8 °F 32% 30.10 in 10.0 mi SSE 8.1 mph - N/A   Clear
2:15 PM 95.0 °F 96.0 °F 62.6 °F 34% 30.09 in 10.0 mi SSE 5.8 mph 17.3 mph N/A   Unknown
2:35 PM 95.0 °F 96.0 °F 62.6 °F 34% 30.08 in 10.0 mi SE 9.2 mph - N/A   Unknown
2:55 PM 96.8 °F 98.0 °F 62.6 °F 32% 30.07 in 10.0 mi East 6.9 mph - N/A   Unknown
3:15 PM 96.8 °F 98.0 °F 62.6 °F 32% 30.06 in 10.0 mi East 5.8 mph - N/A   Unknown
3:35 PM 95.0 °F 96.0 °F 62.6 °F 34% 30.05 in 10.0 mi ESE 5.8 mph - N/A   Unknown
3:55 PM 96.8 °F 98.0 °F 62.6 °F 32% 30.04 in 10.0 mi East 5.8 mph - N/A   Unknown
4:15 PM 96.8 °F 98.0 °F 62.6 °F 32% 30.04 in 10.0 mi SSE 4.6 mph - N/A   Unknown
4:35 PM 95.0 °F 96.0 °F 62.6 °F 34% 30.03 in 10.0 mi East 5.8 mph - N/A   Unknown
4:55 PM 95.0 °F 96.0 °F 62.6 °F 34% 30.02 in 10.0 mi East 5.8 mph - N/A   Unknown
5:15 PM 96.8 °F 98.0 °F 62.6 °F 32% 30.02 in 10.0 mi ESE 4.6 mph - N/A   Clear
5:35 PM 96.8 °F 98.0 °F 62.6 °F 32% 30.02 in 10.0 mi SE 9.2 mph - N/A   Unknown
5:55 PM 93.2 °F 94.9 °F 64.4 °F 38% 30.02 in 10.0 mi ESE 8.1 mph - N/A   Clear
6:15 PM 93.2 °F 94.1 °F 62.6 °F 36% 30.03 in 10.0 mi ESE 6.9 mph - N/A Thunderstorm Clear
6:35 PM 93.2 °F 94.9 °F 64.4 °F 38% 30.03 in 10.0 mi ESE 6.9 mph - N/A   Clear
6:55 PM 91.4 °F 93.2 °F 64.4 °F 41% 30.03 in 10.0 mi SE 6.9 mph - N/A   Clear
7:15 PM 87.8 °F 90.4 °F 66.2 °F 49% 30.04 in 10.0 mi South 11.5 mph 16.1 mph N/A   Clear
7:35 PM 84.2 °F 86.6 °F 66.2 °F 55% 30.05 in 10.0 mi South 6.9 mph - N/A   Clear
7:55 PM 84.2 °F 86.6 °F 66.2 °F 55% 30.05 in 10.0 mi SSE 4.6 mph - N/A   Clear
8:15 PM 82.4 °F 84.6 °F 66.2 °F 58% 30.05 in 10.0 mi East 3.5 mph - N/A   Clear
8:35 PM 82.4 °F 84.6 °F 66.2 °F 58% 30.05 in 10.0 mi NE 4.6 mph - N/A   Clear
8:55 PM 80.6 °F 82.7 °F 66.2 °F 61% 30.06 in 10.0 mi ENE 4.6 mph - N/A   Clear
9:15 PM 80.6 °F 82.7 °F 66.2 °F 61% 30.06 in 10.0 mi Calm Calm - N/A   Clear
9:35 PM 78.8 °F - 68.0 °F 69% 30.07 in 10.0 mi NNE 3.5 mph - N/A   Clear
9:55 PM 78.8 °F - 68.0 °F 69% 30.08 in 10.0 mi NE 3.5 mph - N/A   Clear
10:15 PM 78.8 °F - 66.2 °F 65% 30.08 in 10.0 mi Calm Calm - N/A   Clear
10:35 PM 78.8 °F - 66.2 °F 65% 30.08 in 10.0 mi ENE 3.5 mph - N/A   Clear
10:55 PM 77.0 °F - 66.2 °F 69% 30.08 in 10.0 mi ESE 3.5 mph - N/A   Clear
11:15 PM 80.6 °F 82.7 °F 66.2 °F 61% 30.08 in 10.0 mi ESE 3.5 mph - N/A   Clear
11:35 PM 78.8 °F - 68.0 °F 69% 30.08 in 10.0 mi Calm Calm - N/A   Clear
11:55 PM 75.2 °F - 68.0 °F 78% 30.08 in 10.0 mi Calm Calm - N/A   Clear